Renton, WA

12:08 PM PDT on June 28, 2017 (GMT -0700)
Renton Municipal

Weather History for KRNT - August, 2013

Change the Weather History Date:

Tuesday, August 20, 2013

  Actual Average Record
Temperature  
Mean Temperature 68 °F -  
Max Temperature 75 °F 75 °F 91 °F (2016)
Min Temperature 61 °F 56 °F 51 °F (2001)
Cooling Degree Days 3    
Growing Degree Days 18 (Base 50)    
Moisture  
Dew Point 51 °F    
Average Humidity 56    
Maximum Humidity 67    
Minimum Humidity 43    
Precipitation  
Precipitation 0.00 in - - ()
Sea Level Pressure  
Sea Level Pressure 30.14 in    
Wind  
Wind Speed 6 mph (NNW)    
Max Wind Speed 14 mph    
Max Gust Speed -    
Visibility 10 miles    
Events      
Averages and records for this station are not official NWS values.
T = Trace of Precipitation, MM = Missing Value Source: NWS Daily Summary

Daily Weather History Graph

Daily Weather History Graph

Search for Another Location

Airport or City:

Trip Planner

Search our weather history database for the weather conditions in past years. The results will help you decide how hot, cold, wet, or windy it might be!

Date:

Astronomy

Aug. 20, 2013 Rise Set
Actual Time 6:12 AM PDT 8:11 PM PDT
Civil Twilight 5:38 AM PDT 8:44 PM PDT
Nautical Twilight 4:58 AM PDT 9:24 PM PDT
Astronomical Twilight 4:12 AM PDT 10:09 PM PDT
Moon 7:41 PM PDT (8/20) 5:50 AM PDT (8/20)
Length of Visible Light 15h 05m
Length of Day
13h 59m
Full, 100% of the Moon is Illuminated
Aug 20
Full
Aug 20
Full
Aug 28
Last Quarter
Sep 5
New
Sep 12
First Quarter

Hourly Weather History & Observations

Time (PDT) Temp. Dew Point Humidity Pressure Visibility Wind Dir Wind Speed Gust Speed Precip Events Conditions
12:53 AM 64.0 °F 48.9 °F 58% 30.13 in 10.0 mi Variable 3.5 mph - N/A   Overcast
1:53 AM 64.0 °F 48.0 °F 56% 30.13 in 10.0 mi North 4.6 mph - N/A   Overcast
2:53 AM 64.0 °F 48.0 °F 56% 30.14 in 10.0 mi NNW 3.5 mph - N/A   Overcast
3:53 AM 63.0 °F 48.9 °F 60% 30.14 in 10.0 mi Calm Calm - N/A   Overcast
4:53 AM 62.1 °F 50.0 °F 65% 30.16 in 9.0 mi North 4.6 mph - N/A   Overcast
5:53 AM 61.0 °F 50.0 °F 67% 30.16 in 10.0 mi Calm Calm - N/A   Clear
6:53 AM 61.0 °F 50.0 °F 67% 30.17 in 10.0 mi NNW 3.5 mph - N/A   Clear
7:53 AM 62.1 °F 51.1 °F 67% 30.18 in 10.0 mi North 4.6 mph - N/A   Clear
8:53 AM 64.0 °F 51.1 °F 63% 30.18 in 10.0 mi NNW 8.1 mph - N/A   Clear
9:53 AM 66.9 °F 52.0 °F 59% 30.18 in 10.0 mi NNW 8.1 mph - N/A   Clear
10:53 AM 68.0 °F 53.1 °F 59% 30.18 in 10.0 mi WNW 11.5 mph - N/A   Clear
11:53 AM 70.0 °F 54.0 °F 57% 30.16 in 10.0 mi NW 10.4 mph - N/A   Clear
12:53 PM 73.0 °F 54.0 °F 51% 30.15 in 10.0 mi NW 10.4 mph - N/A   Clear
1:53 PM 73.9 °F 54.0 °F 50% 30.14 in 10.0 mi NW 10.4 mph - N/A   Clear
2:53 PM 75.0 °F 53.1 °F 46% 30.13 in 10.0 mi NW 10.4 mph - N/A   Clear
3:53 PM 75.9 °F 53.1 °F 45% 30.12 in 10.0 mi NW 10.4 mph - N/A   Clear
4:53 PM 75.0 °F 53.1 °F 46% 30.11 in 10.0 mi NW 13.8 mph - N/A   Clear
5:53 PM 75.0 °F 51.1 °F 43% 30.10 in 10.0 mi NW 12.7 mph - N/A   Clear
6:53 PM 73.0 °F 51.1 °F 46% 30.08 in 10.0 mi NW 13.8 mph - N/A   Clear
7:53 PM 71.1 °F 51.1 °F 49% 30.09 in 10.0 mi NNW 10.4 mph - N/A   Clear
8:53 PM 69.1 °F 52.0 °F 54% 30.10 in 10.0 mi NNW 8.1 mph - N/A   Clear
9:53 PM 66.9 °F 51.1 °F 57% 30.10 in 10.0 mi NNW 11.5 mph - N/A   Clear
10:53 PM 66.0 °F 50.0 °F 56% 30.10 in 10.0 mi Variable 3.5 mph - N/A   Clear
11:53 PM 64.0 °F 48.9 °F 58% 30.11 in 10.0 mi Calm Calm - N/A   Clear